Time,TemperatureF,DewpointF,PressureIn,WindDirection,WindDirectionDegrees,WindSpeedMPH,WindSpeedGustMPH,Humidity,HourlyPrecipIn,Conditions,Clouds,dailyrainin,SoftwareType,DateUTC
2013-01-08 00:00:00,51.4,51.4,-100.00,WSW,241,5.0,14.0,-999,0.00,,,0.00,VWS V14.01,2013-01-08 08:00:00,
2013-01-08 00:03:00,51.3,51.3,-100.00,WSW,240,9.0,11.0,-999,0.00,,,0.00,VWS V14.01,2013-01-08 08:03:00,
2013-01-08 00:08:00,51.6,51.6,-100.00,SW,216,8.0,11.0,-999,0.00,,,0.00,VWS V14.01,2013-01-08 08:08:00,
2013-01-08 00:13:00,51.7,51.7,-100.00,SW,233,4.0,13.0,-999,0.00,,,0.00,VWS V14.01,2013-01-08 08:13:00,
2013-01-08 00:18:00,51.6,51.6,-100.00,SW,229,8.0,14.0,-999,0.00,,,0.00,VWS V14.01,2013-01-08 08:18:00,
2013-01-08 00:23:00,51.3,51.3,-100.00,South,174,4.0,14.0,-999,0.00,,,0.00,VWS V14.01,2013-01-08 08:23:00,
2013-01-08 00:28:00,50.7,50.7,-100.00,SSW,200,4.0,14.0,-999,0.00,,,0.00,VWS V14.01,2013-01-08 08:28:00,
2013-01-08 00:30:00,50.5,50.5,-100.00,SW,215,4.0,14.0,-999,0.00,,,0.00,VWS V14.01,2013-01-08 08:30:00,
2013-01-08 00:33:00,50.9,50.9,-100.00,SSW,201,3.0,7.0,-999,0.00,,,0.00,VWS V14.01,2013-01-08 08:33:00,
2013-01-08 00:38:00,50.8,50.8,-100.00,SSW,193,8.0,11.0,-999,0.00,,,0.00,VWS V14.01,2013-01-08 08:38:00,
2013-01-08 00:43:00,50.7,50.7,-100.00,SSW,207,10.0,11.0,-999,0.00,,,0.00,VWS V14.01,2013-01-08 08:43:00,
2013-01-08 00:48:00,50.4,50.4,-100.00,SSW,197,9.0,12.0,-999,0.00,,,0.00,VWS V14.01,2013-01-08 08:48:00,
2013-01-08 00:53:00,50.6,50.6,-100.00,SSW,196,8.0,12.0,-999,0.00,,,0.00,VWS V14.01,2013-01-08 08:53:00,
2013-01-08 00:58:00,50.6,50.6,-100.00,South,187,5.0,12.0,-999,0.00,,,0.00,VWS V14.01,2013-01-08 08:58:00,
2013-01-08 01:00:00,50.8,50.8,-100.00,South,184,6.0,12.0,-999,0.00,,,0.00,VWS V14.01,2013-01-08 09:00:00,
2013-01-08 01:03:00,49.9,49.9,-100.00,South,187,6.0,11.0,-999,0.00,,,0.00,VWS V14.01,2013-01-08 09:03:00,
2013-01-08 01:08:00,49.9,49.9,-100.00,SSW,200,6.0,11.0,-999,0.00,,,0.00,VWS V14.01,2013-01-08 09:08:00,
2013-01-08 01:13:00,49.9,49.9,-100.00,SSW,196,5.0,11.0,-999,0.00,,,0.00,VWS V14.01,2013-01-08 09:13:00,
2013-01-08 01:18:00,49.5,49.5,-100.00,South,182,4.0,11.0,-999,0.00,,,0.00,VWS V14.01,2013-01-08 09:18:00,
2013-01-08 01:23:00,50.1,50.1,-100.00,SW,230,4.0,11.0,-999,0.00,,,0.00,VWS V14.01,2013-01-08 09:23:00,
2013-01-08 01:28:00,50.4,50.4,-100.00,SW,216,5.0,11.0,-999,0.00,,,0.00,VWS V14.01,2013-01-08 09:28:00,
2013-01-08 01:30:00,50.3,50.3,-100.00,SW,216,3.0,11.0,-999,0.00,,,0.00,VWS V14.01,2013-01-08 09:30:00,
2013-01-08 01:33:00,50.1,50.1,-100.00,SW,216,4.0,8.0,-999,0.00,,,0.00,VWS V14.01,2013-01-08 09:33:00,
2013-01-08 01:38:00,50.5,50.5,-100.00,SW,216,4.0,8.0,-999,0.00,,,0.00,VWS V14.01,2013-01-08 09:38:00,
2013-01-08 01:43:00,51.0,51.0,-100.00,SW,231,5.0,8.0,-999,0.00,,,0.00,VWS V14.01,2013-01-08 09:43:00,
2013-01-08 01:48:00,51.3,51.3,-100.00,WSW,256,3.0,8.0,-999,0.00,,,0.00,VWS V14.01,2013-01-08 09:48:00,
2013-01-08 01:53:00,51.1,51.1,-100.00,SSW,212,4.0,8.0,-999,0.00,,,0.00,VWS V14.01,2013-01-08 09:53:00,
2013-01-08 01:58:00,51.5,51.5,-100.00,WSW,246,9.0,9.0,-999,0.00,,,0.00,VWS V14.01,2013-01-08 09:58:00,
2013-01-08 02:00:00,52.0,52.0,-100.00,West,259,6.0,11.0,-999,0.00,,,0.00,VWS V14.01,2013-01-08 10:00:00,
2013-01-08 02:03:00,51.8,51.8,-100.00,WSW,244,6.0,8.0,-999,0.00,,,0.00,VWS V14.01,2013-01-08 10:03:00,
2013-01-08 02:08:00,51.6,51.6,-100.00,SW,226,4.0,12.0,-999,0.00,,,0.00,VWS V14.01,2013-01-08 10:08:00,
2013-01-08 02:13:00,50.8,50.8,-100.00,SW,231,3.0,12.0,-999,0.00,,,0.00,VWS V14.01,2013-01-08 10:13:00,
2013-01-08 02:18:00,50.0,50.0,-100.00,SW,231,1.0,12.0,-999,0.00,,,0.00,VWS V14.01,2013-01-08 10:18:00,
2013-01-08 02:23:00,48.9,48.9,-100.00,SW,231,1.0,12.0,-999,0.00,,,0.00,VWS V14.01,2013-01-08 10:23:00,
2013-01-08 02:28:00,49.9,49.9,-100.00,West,259,2.0,12.0,-999,0.00,,,0.00,VWS V14.01,2013-01-08 10:28:00,
2013-01-08 02:30:00,50.0,50.0,-100.00,West,259,1.0,12.0,-999,0.00,,,0.00,VWS V14.01,2013-01-08 10:30:00,
2013-01-08 02:33:00,50.0,50.0,-100.00,NW,308,2.0,7.0,-999,0.00,,,0.00,VWS V14.01,2013-01-08 10:33:00,
2013-01-08 02:39:00,49.3,49.3,-100.00,NW,308,3.0,7.0,-999,0.00,,,0.00,VWS V14.01,2013-01-08 10:39:00,
2013-01-08 02:44:00,48.1,48.1,-100.00,NW,308,1.0,7.0,-999,0.00,,,0.00,VWS V14.01,2013-01-08 10:44:00,
2013-01-08 02:49:00,49.6,49.6,-100.00,NW,308,1.0,7.0,-999,0.00,,,0.00,VWS V14.01,2013-01-08 10:49:00,
2013-01-08 02:54:00,50.2,50.2,-100.00,WNW,287,6.0,7.0,-999,0.00,,,0.00,VWS V14.01,2013-01-08 10:54:00,
2013-01-08 02:59:00,50.1,50.1,-100.00,West,267,4.0,7.0,-999,0.00,,,0.00,VWS V14.01,2013-01-08 10:59:00,
2013-01-08 03:00:00,50.2,50.2,-100.00,West,268,3.0,7.0,-999,0.00,,,0.00,VWS V14.01,2013-01-08 11:00:00,
2013-01-08 03:04:00,49.9,49.9,-100.00,West,267,2.0,5.0,-999,0.00,,,0.00,VWS V14.01,2013-01-08 11:04:00,
2013-01-08 03:09:00,50.3,50.3,-100.00,West,268,4.0,6.0,-999,0.00,,,0.00,VWS V14.01,2013-01-08 11:09:00,
2013-01-08 03:14:00,50.6,50.6,-100.00,West,281,5.0,8.0,-999,0.00,,,0.00,VWS V14.01,2013-01-08 11:14:00,
2013-01-08 03:19:00,50.4,50.4,-100.00,West,272,6.0,8.0,-999,0.00,,,0.00,VWS V14.01,2013-01-08 11:19:00,
2013-01-08 03:24:00,50.2,50.2,-100.00,West,260,2.0,8.0,-999,0.00,,,0.00,VWS V14.01,2013-01-08 11:24:00,
2013-01-08 03:29:00,50.3,50.3,-100.00,West,262,3.0,8.0,-999,0.00,,,0.00,VWS V14.01,2013-01-08 11:29:00,
2013-01-08 03:30:00,50.3,50.3,-100.00,West,262,1.0,8.0,-999,0.00,,,0.00,VWS V14.01,2013-01-08 11:30:00,
2013-01-08 03:34:00,50.1,50.1,-100.00,West,262,4.0,4.0,-999,0.00,,,0.00,VWS V14.01,2013-01-08 11:34:00,
2013-01-08 03:39:00,50.2,50.2,-100.00,West,271,3.0,6.0,-999,0.00,,,0.00,VWS V14.01,2013-01-08 11:39:00,
2013-01-08 03:44:00,49.9,49.9,-100.00,West,270,4.0,6.0,-999,0.00,,,0.00,VWS V14.01,2013-01-08 11:44:00,
2013-01-08 03:49:00,49.8,49.8,-100.00,West,270,2.0,6.0,-999,0.00,,,0.00,VWS V14.01,2013-01-08 11:49:00,
2013-01-08 03:54:00,48.7,48.7,-100.00,West,270,1.0,6.0,-999,0.00,,,0.00,VWS V14.01,2013-01-08 11:54:00,
2013-01-08 03:59:00,47.1,47.1,-100.00,West,270,1.0,6.0,-999,0.00,,,0.05,VWS V14.01,2013-01-08 11:59:00,
2013-01-08 04:00:00,47.1,47.1,-100.00,West,270,0.0,6.0,-999,0.00,,,0.00,VWS V14.01,2013-01-08 12:00:00,
2013-01-08 04:04:00,46.3,46.3,-100.00,West,270,1.0,2.0,-999,0.00,,,0.00,VWS V14.01,2013-01-08 12:04:00,
2013-01-08 04:09:00,46.6,46.6,-100.00,West,270,0.0,2.0,-999,0.00,,,0.00,VWS V14.01,2013-01-08 12:09:00,
2013-01-08 04:14:00,45.6,45.6,-100.00,West,270,0.0,2.0,-999,0.00,,,0.00,VWS V14.01,2013-01-08 12:14:00,
2013-01-08 04:19:00,45.5,45.5,-100.00,West,270,1.0,2.0,-999,0.00,,,0.00,VWS V14.01,2013-01-08 12:19:00,
2013-01-08 04:24:00,46.5,46.5,-100.00,West,270,1.0,2.0,-999,0.00,,,0.00,VWS V14.01,2013-01-08 12:24:00,
2013-01-08 04:29:00,46.4,46.4,-100.00,West,270,0.0,2.0,-999,0.00,,,0.00,VWS V14.01,2013-01-08 12:29:00,
2013-01-08 04:30:00,46.4,46.4,-100.00,West,270,0.0,2.0,-999,0.00,,,0.00,VWS V14.01,2013-01-08 12:30:00,
2013-01-08 04:35:00,45.8,45.8,-100.00,West,270,0.0,1.0,-999,0.00,,,0.00,VWS V14.01,2013-01-08 12:35:00,
2013-01-08 04:40:00,46.5,46.5,-100.00,West,270,1.0,3.0,-999,0.00,,,0.00,VWS V14.01,2013-01-08 12:40:00,
2013-01-08 04:45:00,46.7,46.7,-100.00,West,270,2.0,3.0,-999,0.00,,,0.00,VWS V14.01,2013-01-08 12:45:00,
2013-01-08 04:52:00,45.4,45.4,-100.00,West,270,0.0,3.0,-999,0.00,,,0.00,VWS V14.01,2013-01-08 12:52:00,
2013-01-08 04:57:00,46.4,46.4,-100.00,West,270,0.0,3.0,-999,0.00,,,0.00,VWS V14.01,2013-01-08 12:57:00,
2013-01-08 05:00:00,46.1,46.1,-100.00,West,270,0.0,3.0,-999,0.00,,,0.00,VWS V14.01,2013-01-08 13:00:00,
2013-01-08 05:02:00,45.8,45.8,-100.00,West,270,2.0,2.0,-999,0.00,,,0.00,VWS V14.01,2013-01-08 13:02:00,
2013-01-08 05:07:00,45.4,45.4,-100.00,West,270,1.0,2.0,-999,0.00,,,0.00,VWS V14.01,2013-01-08 13:07:00,
2013-01-08 05:13:00,45.2,45.2,-100.00,West,270,0.0,3.0,-999,0.00,,,0.00,VWS V14.01,2013-01-08 13:13:00,
2013-01-08 05:18:00,45.1,45.1,-100.00,West,270,1.0,3.0,-999,0.00,,,0.00,VWS V14.01,2013-01-08 13:18:00,
2013-01-08 05:23:00,45.0,45.0,-100.00,West,270,1.0,3.0,-999,0.00,,,0.00,VWS V14.01,2013-01-08 13:23:00,
2013-01-08 05:29:00,44.8,44.8,-100.00,West,270,1.0,3.0,-999,0.00,,,0.00,VWS V14.01,2013-01-08 13:29:00,
2013-01-08 05:30:00,44.8,44.8,-100.00,West,270,1.0,3.0,-999,0.00,,,0.00,VWS V14.01,2013-01-08 13:30:00,
2013-01-08 05:35:00,44.2,44.2,-100.00,West,270,0.0,2.0,-999,0.00,,,0.00,VWS V14.01,2013-01-08 13:35:00,
2013-01-08 05:40:00,44.3,44.3,-100.00,West,270,1.0,2.0,-999,0.00,,,0.00,VWS V14.01,2013-01-08 13:40:00,
2013-01-08 05:45:00,44.3,44.3,-100.00,West,270,2.0,3.0,-999,0.00,,,0.00,VWS V14.01,2013-01-08 13:45:00,
2013-01-08 05:50:00,44.2,44.2,-100.00,West,270,2.0,3.0,-999,0.00,,,0.00,VWS V14.01,2013-01-08 13:50:00,
2013-01-08 05:55:00,43.9,43.9,-100.00,West,270,0.0,3.0,-999,0.00,,,0.00,VWS V14.01,2013-01-08 13:55:00,
2013-01-08 06:00:00,43.6,43.6,-100.00,West,270,0.0,3.0,-999,0.00,,,0.00,VWS V14.01,2013-01-08 14:00:00,
2013-01-08 06:05:00,43.6,43.6,-100.00,West,270,0.0,0.0,-999,0.00,,,0.00,VWS V14.01,2013-01-08 14:05:00,
2013-01-08 06:11:00,44.2,44.2,-100.00,West,270,1.0,2.0,-999,0.00,,,0.00,VWS V14.01,2013-01-08 14:11:00,
2013-01-08 06:16:00,44.0,44.0,-100.00,West,270,2.0,2.0,-999,0.00,,,0.00,VWS V14.01,2013-01-08 14:16:00,
2013-01-08 06:21:00,44.4,44.4,-100.00,West,270,1.0,2.0,-999,0.00,,,0.00,VWS V14.01,2013-01-08 14:21:00,
2013-01-08 06:26:00,44.0,44.0,-100.00,West,270,1.0,2.0,-999,0.00,,,0.00,VWS V14.01,2013-01-08 14:26:00,
2013-01-08 06:30:00,43.5,43.5,-100.00,West,270,1.0,3.0,-999,0.00,,,0.00,VWS V14.01,2013-01-08 14:30:00,
2013-01-08 06:31:00,44.1,44.1,-100.00,West,270,2.0,2.0,-999,0.00,,,0.00,VWS V14.01,2013-01-08 14:31:00,
2013-01-08 06:36:00,44.2,44.2,-100.00,West,269,1.0,3.0,-999,0.00,,,0.00,VWS V14.01,2013-01-08 14:36:00,
2013-01-08 06:41:00,43.9,43.9,-100.00,West,269,0.0,3.0,-999,0.00,,,0.00,VWS V14.01,2013-01-08 14:41:00,
2013-01-08 06:46:00,44.0,44.0,-100.00,West,270,0.0,3.0,-999,0.00,,,0.00,VWS V14.01,2013-01-08 14:46:00,
2013-01-08 06:51:00,44.2,44.2,-100.00,West,270,2.0,3.0,-999,0.00,,,0.00,VWS V14.01,2013-01-08 14:51:00,
2013-01-08 06:56:00,43.7,43.7,-100.00,West,270,1.0,3.0,-999,0.00,,,0.00,VWS V14.01,2013-01-08 14:56:00,
2013-01-08 07:00:00,44.0,44.0,-100.00,West,270,0.0,3.0,-999,0.00,,,0.00,VWS V14.01,2013-01-08 15:00:00,
2013-01-08 07:01:00,43.7,43.7,-100.00,West,270,0.0,0.0,-999,0.00,,,0.00,VWS V14.01,2013-01-08 15:01:00,
2013-01-08 07:06:00,42.5,42.5,-100.00,West,270,0.0,1.0,-999,0.00,,,0.00,VWS V14.01,2013-01-08 15:06:00,
2013-01-08 07:11:00,42.3,42.3,-100.00,West,270,0.0,1.0,-999,0.00,,,0.00,VWS V14.01,2013-01-08 15:11:00,
2013-01-08 07:17:00,42.7,42.7,-100.00,West,270,1.0,2.0,-999,0.00,,,0.00,VWS V14.01,2013-01-08 15:17:00,
2013-01-08 07:22:00,42.6,42.6,-100.00,West,270,0.0,2.0,-999,0.00,,,0.00,VWS V14.01,2013-01-08 15:22:00,
2013-01-08 07:27:00,43.1,43.1,-100.00,West,270,1.0,2.0,-999,0.00,,,0.00,VWS V14.01,2013-01-08 15:27:00,
2013-01-08 07:30:00,43.7,43.7,-100.00,West,270,1.0,2.0,-999,0.00,,,0.00,VWS V14.01,2013-01-08 15:30:00,
2013-01-08 07:32:00,43.5,43.5,-100.00,West,270,1.0,2.0,-999,0.00,,,0.00,VWS V14.01,2013-01-08 15:32:00,
2013-01-08 07:37:00,43.5,43.5,-100.00,West,270,0.0,2.0,-999,0.00,,,0.00,VWS V14.01,2013-01-08 15:37:00,
2013-01-08 07:42:00,43.4,43.4,-100.00,West,270,0.0,2.0,-999,0.00,,,0.00,VWS V14.01,2013-01-08 15:42:00,
2013-01-08 07:47:00,43.6,43.6,-100.00,West,270,1.0,2.0,-999,0.00,,,0.00,VWS V14.01,2013-01-08 15:47:00,
2013-01-08 07:52:00,43.9,43.9,-100.00,West,270,1.0,2.0,-999,0.00,,,0.00,VWS V14.01,2013-01-08 15:52:00,
2013-01-08 07:57:00,45.3,45.3,-100.00,West,270,1.0,2.0,-999,0.00,,,0.00,VWS V14.01,2013-01-08 15:57:00,
2013-01-08 08:00:00,45.6,45.6,-100.00,West,270,2.0,2.0,-999,0.00,,,0.00,VWS V14.01,2013-01-08 16:00:00,
2013-01-08 08:02:00,45.5,45.5,-100.00,West,269,2.0,3.0,-999,0.00,,,0.00,VWS V14.01,2013-01-08 16:02:00,
2013-01-08 08:07:00,45.8,45.8,-100.00,West,270,2.0,3.0,-999,0.00,,,0.00,VWS V14.01,2013-01-08 16:07:00,
2013-01-08 08:12:00,46.0,46.0,-100.00,West,270,2.0,4.0,-999,0.00,,,0.00,VWS V14.01,2013-01-08 16:12:00,
2013-01-08 08:17:00,46.2,46.2,-100.00,West,270,2.0,4.0,-999,0.00,,,0.00,VWS V14.01,2013-01-08 16:17:00,
2013-01-08 08:22:00,46.0,46.0,-100.00,West,270,2.0,4.0,-999,0.00,,,0.00,VWS V14.01,2013-01-08 16:22:00,
2013-01-08 08:27:00,45.5,45.5,-100.00,West,269,1.0,4.0,-999,0.00,,,0.00,VWS V14.01,2013-01-08 16:27:00,
2013-01-08 08:30:00,45.2,45.2,-100.00,West,270,3.0,4.0,-999,0.00,,,0.00,VWS V14.01,2013-01-08 16:30:00,
2013-01-08 08:32:00,45.1,45.1,-100.00,West,270,2.0,3.0,-999,0.00,,,0.00,VWS V14.01,2013-01-08 16:32:00,
2013-01-08 08:37:00,45.2,45.2,-100.00,West,270,1.0,3.0,-999,0.00,,,0.00,VWS V14.01,2013-01-08 16:37:00,
2013-01-08 08:42:00,45.6,45.6,-100.00,West,269,0.0,3.0,-999,0.00,,,0.00,VWS V14.01,2013-01-08 16:42:00,
2013-01-08 08:47:00,46.0,46.0,-100.00,West,270,3.0,4.0,-999,0.00,,,0.00,VWS V14.01,2013-01-08 16:47:00,
2013-01-08 08:52:00,46.2,46.2,-100.00,West,270,1.0,4.0,-999,0.00,,,0.00,VWS V14.01,2013-01-08 16:52:00,
2013-01-08 08:57:00,45.9,45.9,-100.00,NE,46,3.0,5.0,-999,0.00,,,0.00,VWS V14.01,2013-01-08 16:57:00,
2013-01-08 09:00:00,45.9,45.9,-100.00,NE,47,1.0,5.0,-999,0.00,,,0.00,VWS V14.01,2013-01-08 17:00:00,
2013-01-08 09:02:00,46.0,46.0,-100.00,NE,47,0.0,3.0,-999,0.00,,,0.00,VWS V14.01,2013-01-08 17:02:00,
2013-01-08 09:07:00,46.5,46.5,-100.00,NE,47,2.0,3.0,-999,0.00,,,0.00,VWS V14.01,2013-01-08 17:07:00,
2013-01-08 09:12:00,47.0,47.0,-100.00,NE,47,2.0,3.0,-999,0.00,,,0.00,VWS V14.01,2013-01-08 17:12:00,
2013-01-08 09:17:00,47.4,47.4,-100.00,NE,47,2.0,3.0,-999,0.00,,,0.00,VWS V14.01,2013-01-08 17:17:00,
2013-01-08 09:23:00,47.3,47.3,-100.00,NE,47,2.0,4.0,-999,0.00,,,0.00,VWS V14.01,2013-01-08 17:23:00,
2013-01-08 09:28:00,47.7,47.7,-100.00,NE,47,0.0,4.0,-999,0.00,,,0.00,VWS V14.01,2013-01-08 17:28:00,
2013-01-08 09:30:00,47.6,47.6,-100.00,NE,47,2.0,4.0,-999,0.00,,,0.00,VWS V14.01,2013-01-08 17:30:00,
2013-01-08 09:33:00,47.8,47.8,-100.00,NE,47,2.0,3.0,-999,0.00,,,0.00,VWS V14.01,2013-01-08 17:33:00,
2013-01-08 09:38:00,47.9,47.9,-100.00,NE,47,1.0,3.0,-999,0.00,,,0.00,VWS V14.01,2013-01-08 17:38:00,
2013-01-08 09:43:00,48.3,48.3,-100.00,NE,47,1.0,3.0,-999,0.00,,,0.00,VWS V14.01,2013-01-08 17:43:00,
2013-01-08 09:48:00,48.6,48.6,-100.00,NE,47,2.0,4.0,-999,0.00,,,0.00,VWS V14.01,2013-01-08 17:48:00,
2013-01-08 09:53:00,48.8,48.8,-100.00,NE,47,2.0,4.0,-999,0.00,,,0.00,VWS V14.01,2013-01-08 17:53:00,
2013-01-08 09:58:00,49.2,49.2,-100.00,NE,47,0.0,4.0,-999,0.00,,,0.00,VWS V14.01,2013-01-08 17:58:00,
2013-01-08 10:00:00,49.2,49.2,-100.00,NE,47,2.0,4.0,-999,0.00,,,0.00,VWS V14.01,2013-01-08 18:00:00,
2013-01-08 10:03:00,49.3,49.3,-100.00,NE,47,1.0,2.0,-999,0.00,,,0.00,VWS V14.01,2013-01-08 18:03:00,
2013-01-08 10:08:00,49.4,49.4,-100.00,NE,47,2.0,3.0,-999,0.00,,,0.00,VWS V14.01,2013-01-08 18:08:00,
2013-01-08 10:13:00,49.7,49.7,-100.00,NE,47,1.0,5.0,-999,0.00,,,0.00,VWS V14.01,2013-01-08 18:13:00,
2013-01-08 10:18:00,49.9,49.9,-100.00,NE,47,2.0,5.0,-999,0.00,,,0.00,VWS V14.01,2013-01-08 18:18:00,
2013-01-08 10:23:00,50.4,50.4,-100.00,NE,47,1.0,5.0,-999,0.00,,,0.00,VWS V14.01,2013-01-08 18:23:00,
2013-01-08 10:28:00,50.7,50.7,-100.00,NE,47,1.0,5.0,-999,0.00,,,0.00,VWS V14.01,2013-01-08 18:28:00,
2013-01-08 10:30:00,50.9,50.9,-100.00,NE,46,1.0,5.0,-999,0.00,,,0.00,VWS V14.01,2013-01-08 18:30:00,
2013-01-08 10:33:00,51.1,51.1,-100.00,NE,47,3.0,3.0,-999,0.00,,,0.00,VWS V14.01,2013-01-08 18:33:00,
2013-01-08 10:38:00,51.1,51.1,-100.00,NE,47,2.0,4.0,-999,0.00,,,0.00,VWS V14.01,2013-01-08 18:38:00,
2013-01-08 10:43:00,51.2,51.2,-100.00,NE,47,1.0,4.0,-999,0.00,,,0.00,VWS V14.01,2013-01-08 18:43:00,
2013-01-08 10:48:00,51.5,51.5,-100.00,NE,47,1.0,4.0,-999,0.00,,,0.00,VWS V14.01,2013-01-08 18:48:00,
2013-01-08 10:53:00,51.1,51.1,-100.00,NE,47,2.0,5.0,-999,0.00,,,0.00,VWS V14.01,2013-01-08 18:53:00,
2013-01-08 10:58:00,51.7,51.7,-100.00,NE,47,4.0,5.0,-999,0.00,,,0.00,VWS V14.01,2013-01-08 18:58:00,
2013-01-08 11:00:00,51.8,51.8,-100.00,NE,47,3.0,5.0,-999,0.00,,,0.00,VWS V14.01,2013-01-08 19:00:00,
2013-01-08 11:03:00,52.2,52.2,-100.00,NE,47,3.0,4.0,-999,0.00,,,0.00,VWS V14.01,2013-01-08 19:03:00,
2013-01-08 11:08:00,52.6,52.6,-100.00,NE,47,2.0,4.0,-999,0.00,,,0.00,VWS V14.01,2013-01-08 19:08:00,
2013-01-08 11:13:00,52.9,52.9,-100.00,NE,47,1.0,4.0,-999,0.00,,,0.00,VWS V14.01,2013-01-08 19:13:00,
2013-01-08 11:18:00,53.2,53.2,-100.00,NE,47,2.0,4.0,-999,0.00,,,0.00,VWS V14.01,2013-01-08 19:18:00,
2013-01-08 11:23:00,53.5,53.5,-100.00,NE,47,2.0,4.0,-999,0.00,,,0.00,VWS V14.01,2013-01-08 19:23:00,
2013-01-08 11:28:00,53.8,53.8,-100.00,NE,47,3.0,4.0,-999,0.00,,,0.00,VWS V14.01,2013-01-08 19:28:00,
2013-01-08 11:30:00,53.7,53.7,-100.00,NE,47,2.0,4.0,-999,0.00,,,0.00,VWS V14.01,2013-01-08 19:30:00,
2013-01-08 11:33:00,53.9,53.9,-100.00,NE,47,2.0,3.0,-999,0.00,,,0.00,VWS V14.01,2013-01-08 19:33:00,
2013-01-08 11:38:00,53.9,53.9,-100.00,NE,47,2.0,3.0,-999,0.00,,,0.00,VWS V14.01,2013-01-08 19:38:00,
2013-01-08 11:43:00,54.2,54.2,-100.00,NE,47,2.0,4.0,-999,0.00,,,0.00,VWS V14.01,2013-01-08 19:43:00,
2013-01-08 11:48:00,54.2,54.2,-100.00,NE,47,2.0,4.0,-999,0.00,,,0.00,VWS V14.01,2013-01-08 19:48:00,
2013-01-08 11:53:00,54.1,54.1,-100.00,NE,47,3.0,5.0,-999,0.00,,,0.00,VWS V14.01,2013-01-08 19:53:00,
2013-01-08 11:58:00,54.2,54.2,-100.00,NE,47,1.0,5.0,-999,0.00,,,0.00,VWS V14.01,2013-01-08 19:58:00,
2013-01-08 12:00:00,54.4,54.4,-100.00,NE,47,2.0,5.0,-999,0.00,,,0.00,VWS V14.01,2013-01-08 20:00:00,
2013-01-08 12:03:00,54.4,54.4,-100.00,NE,47,1.0,3.0,-999,0.00,,,0.00,VWS V14.01,2013-01-08 20:03:00,
2013-01-08 12:08:00,54.6,54.6,-100.00,NE,47,1.0,4.0,-999,0.00,,,0.00,VWS V14.01,2013-01-08 20:08:00,
2013-01-08 12:13:00,54.8,54.8,-100.00,NE,47,1.0,4.0,-999,0.00,,,0.00,VWS V14.01,2013-01-08 20:13:00,
2013-01-08 12:19:00,55.2,55.2,-100.00,NE,47,1.0,4.0,-999,0.00,,,0.00,VWS V14.01,2013-01-08 20:19:00,
2013-01-08 12:24:00,55.3,55.3,-100.00,NE,47,0.0,5.0,-999,0.00,,,0.00,VWS V14.01,2013-01-08 20:24:00,
2013-01-08 12:29:00,55.5,55.5,-100.00,NE,47,3.0,5.0,-999,0.00,,,0.00,VWS V14.01,2013-01-08 20:29:00,
2013-01-08 12:30:00,55.6,55.6,-100.00,NE,47,3.0,5.0,-999,0.00,,,0.00,VWS V14.01,2013-01-08 20:30:00,
2013-01-08 12:34:00,56.2,56.2,-100.00,NE,47,2.0,4.0,-999,0.00,,,0.00,VWS V14.01,2013-01-08 20:34:00,
2013-01-08 12:39:00,55.9,55.9,-100.00,NE,47,2.0,5.0,-999,0.00,,,0.00,VWS V14.01,2013-01-08 20:39:00,
2013-01-08 12:44:00,56.6,56.6,-100.00,NE,47,1.0,5.0,-999,0.00,,,0.05,VWS V14.01,2013-01-08 20:44:00,
2013-01-08 12:49:00,56.7,56.7,-100.00,NE,47,2.0,5.0,-999,0.00,,,0.00,VWS V14.01,2013-01-08 20:49:00,
2013-01-08 12:54:00,57.1,57.1,-100.00,NE,47,2.0,5.0,-999,0.00,,,0.00,VWS V14.01,2013-01-08 20:54:00,
2013-01-08 12:59:00,57.0,57.0,-100.00,NE,47,4.0,5.0,-999,0.00,,,0.00,VWS V14.01,2013-01-08 20:59:00,
2013-01-08 13:00:00,56.9,56.9,-100.00,NE,47,4.0,5.0,-999,0.00,,,0.00,VWS V14.01,2013-01-08 21:00:00,
2013-01-08 13:04:00,56.7,56.7,-100.00,NE,47,3.0,4.0,-999,0.00,,,0.00,VWS V14.01,2013-01-08 21:04:00,
2013-01-08 13:09:00,56.5,56.5,-100.00,NE,47,2.0,4.0,-999,0.00,,,0.00,VWS V14.01,2013-01-08 21:09:00,
2013-01-08 13:14:00,56.8,56.8,-100.00,NE,47,2.0,4.0,-999,0.00,,,0.00,VWS V14.01,2013-01-08 21:14:00,
2013-01-08 13:19:00,57.3,57.3,-100.00,NE,47,2.0,4.0,-999,0.00,,,0.00,VWS V14.01,2013-01-08 21:19:00,
2013-01-08 13:24:00,58.0,58.0,-100.00,NE,47,0.0,4.0,-999,0.00,,,0.00,VWS V14.01,2013-01-08 21:24:00,
2013-01-08 13:29:00,57.8,57.8,-100.00,NE,47,2.0,4.0,-999,0.00,,,0.00,VWS V14.01,2013-01-08 21:29:00,
2013-01-08 13:30:00,58.1,58.1,-100.00,NE,47,3.0,4.0,-999,0.00,,,0.00,VWS V14.01,2013-01-08 21:30:00,
2013-01-08 13:34:00,58.1,58.1,-100.00,NE,47,1.0,3.0,-999,0.00,,,0.00,VWS V14.01,2013-01-08 21:34:00,
2013-01-08 13:39:00,57.6,57.6,-100.00,NE,47,1.0,4.0,-999,0.00,,,0.00,VWS V14.01,2013-01-08 21:39:00,
2013-01-08 13:44:00,57.5,57.5,-100.00,NE,47,1.0,4.0,-999,0.00,,,0.00,VWS V14.01,2013-01-08 21:44:00,
2013-01-08 13:49:00,58.3,58.3,-100.00,NE,47,2.0,4.0,-999,0.00,,,0.00,VWS V14.01,2013-01-08 21:49:00,
2013-01-08 13:54:00,58.0,58.0,-100.00,NE,47,1.0,4.0,-999,0.00,,,0.00,VWS V14.01,2013-01-08 21:54:00,
2013-01-08 13:59:00,57.8,57.8,-100.00,NE,47,1.0,4.0,-999,0.00,,,0.00,VWS V14.01,2013-01-08 21:59:00,
2013-01-08 14:00:00,57.8,57.8,-100.00,NE,47,1.0,4.0,-999,0.00,,,0.00,VWS V14.01,2013-01-08 22:00:00,
2013-01-08 14:04:00,58.0,58.0,-100.00,NE,47,0.0,2.0,-999,0.00,,,0.00,VWS V14.01,2013-01-08 22:04:00,
2013-01-08 14:09:00,58.7,58.7,-100.00,NE,47,1.0,3.0,-999,0.00,,,0.00,VWS V14.01,2013-01-08 22:09:00,
2013-01-08 14:14:00,59.4,59.4,-100.00,NE,47,1.0,3.0,-999,0.00,,,0.00,VWS V14.01,2013-01-08 22:14:00,
2013-01-08 14:19:00,59.1,59.1,-100.00,NE,47,1.0,3.0,-999,0.00,,,0.00,VWS V14.01,2013-01-08 22:19:00,
2013-01-08 14:24:00,59.0,59.0,-100.00,NE,47,1.0,3.0,-999,0.00,,,0.00,VWS V14.01,2013-01-08 22:24:00,
2013-01-08 14:29:00,59.3,59.3,-100.00,NE,47,0.0,3.0,-999,0.00,,,0.00,VWS V14.01,2013-01-08 22:29:00,
2013-01-08 14:30:00,59.4,59.4,-100.00,NE,46,0.0,3.0,-999,0.00,,,0.00,VWS V14.01,2013-01-08 22:30:00,
2013-01-08 14:34:00,59.3,59.3,-100.00,NE,47,1.0,2.0,-999,0.00,,,0.00,VWS V14.01,2013-01-08 22:34:00,
2013-01-08 14:39:00,59.7,59.7,-100.00,NE,47,1.0,3.0,-999,0.00,,,0.00,VWS V14.01,2013-01-08 22:39:00,
2013-01-08 14:44:00,59.3,59.3,-100.00,NE,47,2.0,3.0,-999,0.00,,,0.00,VWS V14.01,2013-01-08 22:44:00,
2013-01-08 14:49:00,59.6,59.6,-100.00,NE,47,1.0,3.0,-999,0.00,,,0.00,VWS V14.01,2013-01-08 22:49:00,
2013-01-08 14:54:00,59.4,59.4,-100.00,NE,47,1.0,3.0,-999,0.00,,,0.00,VWS V14.01,2013-01-08 22:54:00,
2013-01-08 14:59:00,59.2,59.2,-100.00,NE,46,1.0,3.0,-999,0.00,,,0.00,VWS V14.01,2013-01-08 22:59:00,
2013-01-08 15:00:00,59.2,59.2,-100.00,NE,47,1.0,3.0,-999,0.00,,,0.00,VWS V14.01,2013-01-08 23:00:00,
2013-01-08 15:04:00,59.5,59.5,-100.00,NE,47,3.0,3.0,-999,0.00,,,0.00,VWS V14.01,2013-01-08 23:04:00,
2013-01-08 15:09:00,58.7,58.7,-100.00,SE,144,1.0,5.0,-999,0.00,,,0.00,VWS V14.01,2013-01-08 23:09:00,
2013-01-08 15:15:00,58.8,58.8,-100.00,SE,143,1.0,5.0,-999,0.00,,,0.00,VWS V14.01,2013-01-08 23:15:00,
2013-01-08 15:20:00,58.6,58.6,-100.00,SE,143,1.0,5.0,-999,0.00,,,0.00,VWS V14.01,2013-01-08 23:20:00,
2013-01-08 15:25:00,58.5,58.5,-100.00,SE,143,2.0,5.0,-999,0.00,,,0.00,VWS V14.01,2013-01-08 23:25:00,
2013-01-08 15:30:00,58.4,58.4,-100.00,SE,144,2.0,3.0,-999,0.00,,,0.00,VWS V14.01,2013-01-08 23:30:00,
2013-01-08 15:35:00,58.7,58.7,-100.00,SE,144,2.0,3.0,-999,0.00,,,0.00,VWS V14.01,2013-01-08 23:35:00,
2013-01-08 15:40:00,58.2,58.2,-100.00,SE,143,3.0,3.0,-999,0.00,,,0.00,VWS V14.01,2013-01-08 23:40:00,
2013-01-08 15:45:00,58.0,58.0,-100.00,SE,144,2.0,3.0,-999,0.00,,,0.00,VWS V14.01,2013-01-08 23:45:00,
2013-01-08 15:50:00,57.9,57.9,-100.00,SE,144,1.0,3.0,-999,0.00,,,0.00,VWS V14.01,2013-01-08 23:50:00,
2013-01-08 15:55:00,57.7,57.7,-100.00,SE,143,2.0,3.0,-999,0.00,,,0.00,VWS V14.01,2013-01-08 23:55:00,
2013-01-08 16:00:00,57.6,57.6,-100.00,SE,143,1.0,2.0,-999,0.00,,,0.00,VWS V14.01,2013-01-09 00:00:00,
2013-01-08 16:05:00,57.2,57.2,-100.00,SE,144,2.0,2.0,-999,0.00,,,0.00,VWS V14.01,2013-01-09 00:05:00,
2013-01-08 16:10:00,56.9,56.9,-100.00,SE,143,1.0,2.0,-999,0.00,,,0.00,VWS V14.01,2013-01-09 00:10:00,
2013-01-08 16:15:00,56.0,56.0,-100.00,SE,143,2.0,2.0,-999,0.00,,,0.00,VWS V14.01,2013-01-09 00:15:00,
2013-01-08 16:20:00,55.8,55.8,-100.00,SE,143,1.0,2.0,-999,0.00,,,0.00,VWS V14.01,2013-01-09 00:20:00,
2013-01-08 16:25:00,55.6,55.6,-100.00,SE,143,1.0,2.0,-999,0.00,,,0.00,VWS V14.01,2013-01-09 00:25:00,
2013-01-08 16:30:00,55.0,55.0,-100.00,SE,144,1.0,1.0,-999,0.00,,,0.00,VWS V14.01,2013-01-09 00:30:00,
2013-01-08 16:35:00,54.4,54.4,-100.00,SE,144,1.0,2.0,-999,0.00,,,0.00,VWS V14.01,2013-01-09 00:35:00,
2013-01-08 16:40:00,53.7,53.7,-100.00,SE,144,2.0,2.0,-999,0.00,,,0.00,VWS V14.01,2013-01-09 00:40:00,
2013-01-08 16:45:00,53.4,53.4,-100.00,SE,144,1.0,2.0,-999,0.00,,,0.00,VWS V14.01,2013-01-09 00:45:00,
2013-01-08 16:50:00,52.8,52.8,-100.00,SE,143,1.0,2.0,-999,0.00,,,0.00,VWS V14.01,2013-01-09 00:50:00,
2013-01-08 16:55:00,52.2,52.2,-100.00,SE,144,1.0,2.0,-999,0.00,,,0.00,VWS V14.01,2013-01-09 00:55:00,
2013-01-08 17:00:00,51.9,51.9,-100.00,SE,143,1.0,1.0,-999,0.00,,,0.00,VWS V14.01,2013-01-09 01:00:00,
2013-01-08 17:05:00,51.8,51.8,-100.00,SE,144,1.0,1.0,-999,0.00,,,0.00,VWS V14.01,2013-01-09 01:05:00,
2013-01-08 17:10:00,52.0,52.0,-100.00,SE,144,1.0,1.0,-999,0.00,,,0.00,VWS V14.01,2013-01-09 01:10:00,
2013-01-08 17:15:00,51.5,51.5,-100.00,SE,144,1.0,1.0,-999,0.00,,,0.00,VWS V14.01,2013-01-09 01:15:00,
2013-01-08 17:20:00,51.3,51.3,-100.00,SE,143,0.0,1.0,-999,0.00,,,0.00,VWS V14.01,2013-01-09 01:20:00,
2013-01-08 17:26:00,51.2,51.2,-100.00,SE,143,0.0,1.0,-999,0.00,,,0.00,VWS V14.01,2013-01-09 01:26:00,
2013-01-08 17:30:00,52.4,52.4,-100.00,SE,144,2.0,2.0,-999,0.00,,,0.00,VWS V14.01,2013-01-09 01:30:00,
2013-01-08 17:31:00,52.4,52.4,-100.00,SE,144,0.0,2.0,-999,0.00,,,0.05,VWS V14.01,2013-01-09 01:31:00,
2013-01-08 17:36:00,51.4,51.4,-100.00,SE,143,0.0,2.0,-999,0.00,,,0.00,VWS V14.01,2013-01-09 01:36:00,
2013-01-08 17:41:00,51.1,51.1,-100.00,SE,144,0.0,2.0,-999,0.00,,,0.00,VWS V14.01,2013-01-09 01:41:00,
2013-01-08 17:46:00,51.3,51.3,-100.00,SE,144,0.0,2.0,-999,0.00,,,0.00,VWS V14.01,2013-01-09 01:46:00,
2013-01-08 17:51:00,50.3,50.3,-100.00,SE,144,1.0,2.0,-999,0.00,,,0.00,VWS V14.01,2013-01-09 01:51:00,
2013-01-08 17:56:00,50.5,50.5,-100.00,SE,143,1.0,2.0,-999,0.00,,,0.00,VWS V14.01,2013-01-09 01:56:00,
2013-01-08 18:00:00,50.3,50.3,-100.00,SE,144,0.0,2.0,-999,0.00,,,0.00,VWS V14.01,2013-01-09 02:00:00,
2013-01-08 18:01:00,50.5,50.5,-100.00,SE,144,0.0,0.0,-999,0.00,,,0.00,VWS V14.01,2013-01-09 02:01:00,
2013-01-08 18:06:00,51.1,51.1,-100.00,SE,144,0.0,2.0,-999,0.00,,,0.00,VWS V14.01,2013-01-09 02:06:00,
2013-01-08 18:11:00,51.1,51.1,-100.00,SE,143,1.0,2.0,-999,0.00,,,0.00,VWS V14.01,2013-01-09 02:11:00,
2013-01-08 18:16:00,50.4,50.4,-100.00,SE,144,1.0,2.0,-999,0.00,,,0.00,VWS V14.01,2013-01-09 02:16:00,
2013-01-08 18:21:00,50.2,50.2,-100.00,SE,144,0.0,2.0,-999,0.00,,,0.00,VWS V14.01,2013-01-09 02:21:00,
2013-01-08 18:26:00,49.7,49.7,-100.00,SE,143,1.0,2.0,-999,0.00,,,0.00,VWS V14.01,2013-01-09 02:26:00,
2013-01-08 18:30:00,49.8,49.8,-100.00,SE,144,0.0,2.0,-999,0.00,,,0.00,VWS V14.01,2013-01-09 02:30:00,
2013-01-08 18:31:00,49.7,49.7,-100.00,SE,143,0.0,0.0,-999,0.00,,,0.00,VWS V14.01,2013-01-09 02:31:00,
2013-01-08 18:36:00,49.8,49.8,-100.00,SE,144,0.0,1.0,-999,0.00,,,0.00,VWS V14.01,2013-01-09 02:36:00,
2013-01-08 18:41:00,49.3,49.3,-100.00,SE,143,0.0,2.0,-999,0.00,,,0.00,VWS V14.01,2013-01-09 02:41:00,
2013-01-08 18:46:00,49.6,49.6,-100.00,SE,144,0.0,2.0,-999,0.00,,,0.00,VWS V14.01,2013-01-09 02:46:00,
2013-01-08 18:51:00,49.5,49.5,-100.00,SE,143,0.0,2.0,-999,0.00,,,0.00,VWS V14.01,2013-01-09 02:51:00,
2013-01-08 18:56:00,49.2,49.2,-100.00,SE,144,1.0,3.0,-999,0.00,,,0.00,VWS V14.01,2013-01-09 02:56:00,
2013-01-08 19:00:00,48.7,48.7,-100.00,SE,143,0.0,3.0,-999,0.00,,,0.00,VWS V14.01,2013-01-09 03:00:00,
2013-01-08 19:01:00,48.9,48.9,-100.00,SE,144,0.0,1.0,-999,0.00,,,0.00,VWS V14.01,2013-01-09 03:01:00,
2013-01-08 19:06:00,48.8,48.8,-100.00,SE,143,0.0,2.0,-999,0.00,,,0.00,VWS V14.01,2013-01-09 03:06:00,
2013-01-08 19:11:00,48.1,48.1,-100.00,SE,143,0.0,2.0,-999,0.00,,,0.00,VWS V14.01,2013-01-09 03:11:00,
2013-01-08 19:16:00,48.0,48.0,-100.00,SE,144,0.0,2.0,-999,0.00,,,0.00,VWS V14.01,2013-01-09 03:16:00,
2013-01-08 19:21:00,47.7,47.7,-100.00,SE,143,0.0,2.0,-999,0.00,,,0.00,VWS V14.01,2013-01-09 03:21:00,
2013-01-08 19:30:00,48.1,48.1,-100.00,SE,135,0.0,2.0,-999,0.00,,,0.00,VWS V14.01,2013-01-09 03:30:00,
2013-01-08 20:00:00,47.0,47.0,-100.00,SE,135,0.0,2.0,-999,0.00,,,0.00,VWS V14.01,2013-01-09 04:00:00,
2013-01-08 20:30:00,46.4,46.4,-100.00,SE,135,0.0,2.0,-999,0.00,,,0.00,VWS V14.01,2013-01-09 04:30:00,
2013-01-08 21:00:00,46.1,46.1,-100.00,SE,135,1.0,2.0,-999,0.00,,,0.00,VWS V14.01,2013-01-09 05:00:00,
2013-01-08 21:30:00,46.5,46.5,-100.00,SE,135,0.0,2.0,-999,0.00,,,0.00,VWS V14.01,2013-01-09 05:30:00,
2013-01-08 22:00:00,45.4,45.4,-100.00,SE,135,1.0,3.0,-999,0.00,,,0.00,VWS V14.01,2013-01-09 06:00:00,
2013-01-08 22:30:00,44.5,44.5,-100.00,SE,135,1.0,3.0,-999,0.00,,,0.00,VWS V14.01,2013-01-09 06:30:00,
2013-01-08 23:00:00,44.8,44.8,-100.00,SE,135,0.0,2.0,-999,0.00,,,0.00,VWS V14.01,2013-01-09 07:00:00,
2013-01-08 23:30:00,44.3,44.3,-100.00,SE,135,0.0,2.0,-999,0.01,,,0.01,VWS V14.01,2013-01-09 07:30:00,